Regional Weather Roundup
Issued by NWS

Home | Current Version | Previous Version | Graphics & Text | Print | Product List | Glossary On
Versions: 1 2 3 4 5 6 7 8 9 10 11 12 13 14 15 16 17 18 19 20 21 22 23 24 25 26 27 28 29 30 31 32 33 34 35 36 37 38 39 40 41 42 43 44 45 46 47 48 49 50
000
ASUS43 KMPX 181201
RWRMN
WEATHER ROUNDUP FOR MINNESOTA
NATIONAL WEATHER SERVICE TWIN CITIES/CHANHASSEN MN
700 AM CDT THU SEP 18 2014


NOTE: "FAIR" INDICATES FEW OR NO CLOUDS BELOW 12,000 FEET WITH NO
SIGNIFICANT WEATHER AND/OR OBSTRUCTIONS TO VISIBILITY. N/A MEANS
CURRENT SKY AND/OR WEATHER CONDITIONS ARE NOT AVAILABLE.

MNZ060>063-068>070-181300-
   Twin Cities Metro

CITY           SKY/WX    TMP DP  RH WIND       PRES   REMARKS
TWIN CITIES    CLEAR     48  46  93 NE6       30.07S
6HR MIN TEMP:  48; 6HR MAX TEMP:  56;

ST PAUL        CLEAR     48  46  93 E5        30.09R
CRYSTAL        CLOUDY    47  44  90 NE3       30.07R
BLAINE         MOCLDY    46  46 100 CALM      30.08S
LAKEVILLE      CLOUDY    45  45 100 CALM      30.07R FOG
EDEN PRAIRIE     N/A    N/A N/A N/A MISG      30.06R
SOUTH ST PAUL  CLEAR     49  46  92 NE3       30.08R
LAKE ELMO      FAIR      45  45 100 CALM      30.09R
$$
MNZ001>005-007-008-013>017-022>024-027-028-181300-
   Northwest Minnesota

CITY           SKY/WX    TMP DP  RH WIND       PRES   REMARKS
BEMIDJI        CLOUDY    43  41  92 SE12      30.07S
HALLOCK        CLEAR     37  36  93 E5        30.00F
ROSEAU         HAZE      45  39  81 SE5       30.04S VSB 1/4
WARROAD        FOG       43  39  87 SE6       30.05F VSB 1/2
THIEF RVR FALL CLOUDY    48  46  93 SE10      30.02S VSB 1/2
CROOKSTON      FOG       45  45 100 SE8       30.01F VSB 1/2
FOSSTON        CLOUDY    46  45  93 SE8       30.04S FOG
DETROIT LAKES  FOG       46  46 100 SE13      30.05S VSB 1
MOORHEAD       CLEAR     50  50 100 SE6       30.00S
PARK RAPIDS    FOG       45  45 100 SE7       30.07S VSB 3/4
MAHNOMEN       CLOUDY    46  46  97 SE9       30.03S
$$
MNZ006-009>011-018-025>026-181300-
   North Central Minnesota

CITY           SKY/WX    TMP DP  RH WIND       PRES   REMARKS
BAUDETTE       FOG       42  42 100 VRB7      30.07F VSB 1
FLAG ISLAND    CLOUDY    46  45  93 SE12      30.04F
INTL FALLS     CLOUDY    42  41  96 SE6       30.10F
6HR MIN TEMP:  35; 6HR MAX TEMP:  42;

WASKISH        CLOUDY    45  43  93 CALM      30.07S
BIG FORK       CLOUDY    45  41  87 S8        30.11S
LONGVILLE      CLOUDY    41  39  93 E5        30.09F
GRAND RAPIDS   CLOUDY    43  37  81 SE6       30.11S
CRANE LAKE     CLOUDY    41  39  93 CALM      30.15S
ORR            CLOUDY    41  37  87 SE6       30.10S
COOK           CLOUDY    43  37  81 SE6       30.13S
WALKER         CLOUDY    42  41  95 SE9       30.09S
$$
MNZ012-019>021-037-181300-
   Northeast Minnesota

CITY           SKY/WX    TMP DP  RH WIND       PRES   REMARKS
DULUTH         CLOUDY    42  36  79 E13       30.13S
6HR MIN TEMP:  42; 6HR MAX TEMP:  45;

ELY            MOCLDY    37  34  87 CALM      30.15S
HIBBING        CLOUDY    42  37  82 SE7       30.12F
EVELETH        CLOUDY    41  36  81 E3        30.14S
DULUTH HARBOR  CLOUDY    46  41  81 E15G21    30.16S
TWO HARBORS    CLOUDY    43  34  70 E6        30.14S
SILVER BAY     PTCLDY    41  37  87 E6        30.15R
GRAND MARAIS     N/A     44  32  62 SE5       30.19S
G MARAIS ARPRT MOCLDY    36  28  75 CALM      30.17S
$$
MNZ029>031-032-039>041-046>048-054>057-064-181300-
   West Central Minnesota

CITY           SKY/WX    TMP DP  RH WIND       PRES   REMARKS
FERGUS FALLS   CLOUDY    50  48  93 E12       30.02S FOG
WHEATON        FOG       48  46  93 E9        30.02S VSB 3/4
MORRIS         FOG       50  48  93 E10       30.01F VSB 1/2
ALEXANDRIA     FOG       48  47  96 E10       30.06S VSB 1/2
ELBOW LAKE     CLOUDY    49  49  99 E13       30.02S FOG
WADENA         FOG       46  45  93 E8        30.06S VSB 1/2
GLENWOOD       MIX PCPN  46  46 100 E10       30.05S VSB 1/4
APPLETON       FOG       54  52  94 E9        30.02R VSB 1/2
BENSON         FOG       50  50 100 SE8       30.03S VSB 3/4
ORTONVILLE     CLOUDY    52  48  87 E9        30.01R FOG
MADISON        CLEAR     52  50  93 E7        30.01S FOG
WILLMAR        FOG       52  48  87 E10       30.06R VSB 1/2
$$
MNZ033>034-036-042>043-049>051-058-059-181300-
   Central Minnesota

CITY           SKY/WX    TMP DP  RH WIND       PRES   REMARKS
ST CLOUD       CLOUDY    47  44  90 E3        30.09R
6HR MIN TEMP:  47; 6HR MAX TEMP:  51;

SAUK CENTRE    CLOUDY    46  46 100 E9        30.07S FOG
PAYNESVILLE    CLOUDY    45  45 100 NE8       30.07S
AITKIN         CLEAR     39  36  87 E5        30.10S
PINE RIVER     CLEAR     39  37  93 SE5       30.13S
BRAINERD       CLOUDY    41  38  89 NE6       30.10S
STAPLES        CLOUDY    46  45  93 SE5       30.08S
LONG PRAIRIE   FOG       45  45 100 E7        30.08R VSB 1
LITTLE FALLS   CLOUDY    43  39  87 E5        30.09S
LITCHFIELD     CLOUDY    48  48 100 E8        30.07S FOG
BUFFALO        CLOUDY    46  44  90 NE7       30.09S
MAPLE LAKE     CLOUDY    47  46  95 NE7       30.09R
$$
MNZ037-044-045-052-053-181300-
   East Central Minnesota

CITY           SKY/WX    TMP DP  RH WIND       PRES   REMARKS
PRINCETON      CLOUDY    46  45  93 NE5       30.09S
MORA           CLOUDY    39  36  87 E3        30.13R
CAMBRIDGE      CLOUDY    48  39  71 NE5       30.08R
RUSH CITY      CLOUDY    44  42  93 NE5       30.11R
MOOSE LAKE     PTCLDY    37  36  93 E5        30.11S
HINCKLEY       CLOUDY    41  41 100 NE7       30.12R
CLOQUET        MOCLDY    41  37  87 E6        30.13R
MCGREGOR       CLEAR     37  36  93 E6        30.12S
$$
MNZ071>073-080-081-089-090-097-098-181300-
   Southwest Minnesota

CITY           SKY/WX    TMP DP  RH WIND       PRES   REMARKS
MONTEVIDEO     FOG       52  52 100 SE10      30.03S VSB 3/4
GRANITE FALLS  FOG       51  51 100 E7        30.04R VSB 3/4
CANBY          FOG       48  47  99 CALM      30.02R VSB 1/2
MARSHALL       MOCLDY    50  46  87 SE6       30.01R
REDWOOD FALLS  FOG       52  52 100 E8        30.03S VSB 1/4
OLIVIA         FOG       52  50  93 E9        30.03S VSB 1/2
PIPESTONE      MOCLDY    55  52  88 SE3       30.01R
WINDOM         CLEAR     48  48 100 CALM      30.03S FOG
WORTHINGTON    CLEAR     52  50  93 CALM      30.03R
JACKSON        CLEAR     52  48  87 S5        30.04R
TRACY          CLEAR     51  50  95 CALM      30.02R
SLAYTON        FOG       46  46 100 CALM      30.03R VSB 1/2
$$
MNZ065>067-074>077-082>085-091>093-181300-
   South Central Minnesota

CITY           SKY/WX    TMP DP  RH WIND       PRES   REMARKS
MANKATO        CLEAR     50  45  81 E3        30.05R
NEW ULM        CLEAR     52  52 100 E6        30.04S FOG
ST JAMES       CLOUDY    52  48  87 E5        30.05R
FAIRMONT       CLEAR     46  43  87 CALM      30.04R
GLENCOE        CLOUDY    51  48  90 NE3       30.06R FOG
FARIBAULT      FOG       52  46  82 CALM      30.06R VSB 1/2
OWATONNA       CLEAR     48  46  93 CALM      30.06R
WASECA         CLEAR     48  45  87 NE3       30.07R
ALBERT LEA     CLEAR     46  46 100 CALM      30.06R
$$
MNZ078>079-086>088-094>096-181300-
   Southeast Minnesota

CITY           SKY/WX    TMP DP  RH WIND       PRES   REMARKS
ROCHESTER      CLEAR     48  46  93 E5        30.08R
6HR MIN TEMP:  48; 6HR MAX TEMP:  52;

RED WING       PTCLDY    48  46  93 E5        30.07R
STANTON        FOG       47  45  95 CALM      30.06R VSB<1/4
DODGE CENTER   CLEAR     46  45  93 CALM      30.07R
WINONA         CLOUDY    52  50  93 SE5       30.09R
AUSTIN         CLEAR     46  46 100 CALM      30.06R
PRESTON        CLEAR     45  45 100 CALM      30.08R FOG
$$
ABBREVIATIONS USED IN REMARKS
   TC - TEMPERATURES IN CELSIUS
  WCI - WIND CHILL INDEX
   HX - HEAT INDEX
  VSB - VISIBILITY
$$


USA.gov is the U.S. government's official web portal to all federal, state and local government web resources and services.